• In Russia
  • List of Countries
  • For 7 days
  • Water Temperature
  • Satellite Maps
  • Weather Map
  • Weather Widgets
  • user-avatar
    Login

    Hourly Weather Abovyan

    Today, 24 August, Thursday

    Time Temperature Precipitation Wind Pressure Humidity
    00:00 +24°C° 0 mm 3 mps 671 mmHg 52%
    01:00 +22°C° 0 mm 3 mps 671 mmHg 56%
    02:00 +21°C° 0 mm 3 mps 671 mmHg 59%
    03:00 +21°C° 0 mm 3 mps 671 mmHg 62%
    04:00 +21°C° 0 mm 3 mps 672 mmHg 64%
    05:00 +20°C° 0 mm 2 mps 672 mmHg 66%
    06:00 +20°C° 0 mm 2 mps 672 mmHg 69%
    07:00 +23°C° 0 mm 2 mps 672 mmHg 60%
    08:00 +26°C° 0 mm 2 mps 673 mmHg 52%
    09:00 +28°C° 0 mm 2 mps 673 mmHg 43%
    10:00 +30°C° 0 mm 2 mps 673 mmHg 38%
    11:00 +31°C° 0 mm 2 mps 673 mmHg 34%
    12:00 +34°C° 0 mm 2 mps 673 mmHg 29%
    13:00 +34°C° 0 mm 3 mps 673 mmHg 28%
    14:00 +35°C° 0 mm 3 mps 673 mmHg 26%
    15:00 +35°C° 0 mm 3 mps 673 mmHg 25%
    16:00 +34°C° 0 mm 3 mps 673 mmHg 29%
    17:00 +33°C° 0 mm 3 mps 672 mmHg 32%
    18:00 +31°C° 0 mm 3 mps 672 mmHg 36%
    19:00 +29°C° 0 mm 3 mps 672 mmHg 39%
    20:00 +27°C° 0 mm 3 mps 673 mmHg 43%
    21:00 +25°C° 0 mm 3 mps 673 mmHg 46%
    22:00 +24°C° 0 mm 3 mps 673 mmHg 46%
    23:00 +22°C° 0 mm 3 mps 673 mmHg 46%

    Tomorrow, 25 August, Friday

    Time Temperature Precipitation Wind Pressure Humidity
    00:00 +22°C° 0 mm 3 mps 673 mmHg 45%
    01:00 +21°C° 0 mm 3 mps 673 mmHg 47%
    02:00 +21°C° 0 mm 3 mps 673 mmHg 48%
    03:00 +20°C° 0 mm 3 mps 673 mmHg 49%
    04:00 +20°C° 0 mm 3 mps 673 mmHg 50%
    05:00 +20°C° 0 mm 3 mps 673 mmHg 51%
    06:00 +19°C° 0 mm 3 mps 673 mmHg 52%
    07:00 +23°C° 0 mm 2 mps 673 mmHg 46%
    08:00 +25°C° 0 mm 2 mps 674 mmHg 40%
    09:00 +28°C° 0 mm 2 mps 674 mmHg 34%
    10:00 +29°C° 0 mm 2 mps 674 mmHg 31%
    11:00 +31°C° 0 mm 2 mps 674 mmHg 29%
    12:00 +32°C° 0 mm 2 mps 674 mmHg 26%
    13:00 +34°C° 0 mm 2 mps 673 mmHg 25%
    14:00 +34°C° 0 mm 3 mps 673 mmHg 25%
    15:00 +35°C° 0 mm 3 mps 673 mmHg 24%
    16:00 +33°C° 0 mm 3 mps 673 mmHg 26%
    17:00 +32°C° 0 mm 4 mps 672 mmHg 29%
    18:00 +30°C° 0 mm 4 mps 672 mmHg 31%
    19:00 +28°C° 0 mm 4 mps 672 mmHg 32%
    20:00 +26°C° 0 mm 4 mps 673 mmHg 33%
    21:00 +23°C° 0 mm 4 mps 673 mmHg 34%
    22:00 +22°C° 0 mm 3 mps 673 mmHg 34%
    23:00 +22°C° 0 mm 3 mps 673 mmHg 34%

    Day after tomorrow, 26 August, Saturday

    Time Temperature Precipitation Wind Pressure Humidity
    00:00 +21°C° 0 mm 3 mps 673 mmHg 34%
    01:00 +20°C° 0 mm 3 mps 673 mmHg 34%
    02:00 +20°C° 0 mm 3 mps 673 mmHg 35%
    03:00 +19°C° 0 mm 3 mps 673 mmHg 35%
    04:00 +19°C° 0 mm 3 mps 673 mmHg 36%
    05:00 +18°C° 0 mm 3 mps 673 mmHg 37%
    06:00 +18°C° 0 mm 3 mps 673 mmHg 38%
    07:00 +21°C° 0 mm 2 mps 673 mmHg 34%
    08:00 +24°C° 0 mm 2 mps 673 mmHg 30%
    09:00 +27°C° 0 mm 2 mps 674 mmHg 27%
    10:00 +28°C° 0 mm 2 mps 673 mmHg 25%
    11:00 +30°C° 0 mm 2 mps 673 mmHg 24%
    12:00 +31°C° 0 mm 2 mps 673 mmHg 22%
    13:00 +31°C° 0 mm 2 mps 673 mmHg 22%
    14:00 +33°C° 0 mm 3 mps 672 mmHg 22%
    15:00 +33°C° 0 mm 3 mps 672 mmHg 21%
    16:00 +31°C° 0 mm 3 mps 672 mmHg 24%
    17:00 +30°C° 0 mm 3 mps 672 mmHg 27%
    18:00 +29°C° 0 mm 3 mps 672 mmHg 30%
    19:00 +27°C° 0 mm 3 mps 672 mmHg 32%
    20:00 +25°C° 0 mm 3 mps 672 mmHg 35%
    21:00 +22°C° 0 mm 3 mps 672 mmHg 37%
    22:00 +21°C° 0 mm 3 mps 672 mmHg 38%
    23:00 +21°C° 0 mm 3 mps 672 mmHg 38%

    27 August, Sunday

    Time Temperature Precipitation Wind Pressure Humidity
    00:00 +20°C° 0 mm 3 mps 672 mmHg 38%
    01:00 +20°C° 0 mm 3 mps 672 mmHg 40%
    02:00 +19°C° 0 mm 2 mps 672 mmHg 42%
    03:00 +19°C° 0 mm 2 mps 671 mmHg 44%
    04:00 +18°C° 0 mm 2 mps 671 mmHg 45%
    05:00 +18°C° 0 mm 2 mps 671 mmHg 46%
    06:00 +18°C° 0 mm 2 mps 671 mmHg 46%
    07:00 +21°C° 0 mm 2 mps 672 mmHg 41%
    08:00 +24°C° 0 mm 2 mps 672 mmHg 36%
    09:00 +26°C° 0 mm 2 mps 672 mmHg 31%
    10:00 +28°C° 0 mm 2 mps 672 mmHg 29%
    11:00 +29°C° 0 mm 2 mps 672 mmHg 27%
    12:00 +31°C° 0 mm 2 mps 672 mmHg 24%
    13:00 +31°C° 0 mm 2 mps 672 mmHg 24%
    14:00 +32°C° 0 mm 2 mps 671 mmHg 23%
    15:00 +32°C° 0 mm 2 mps 671 mmHg 23%
    16:00 +31°C° 0 mm 3 mps 671 mmHg 26%
    17:00 +30°C° 0 mm 3 mps 671 mmHg 29%
    18:00 +29°C° 0 mm 3 mps 671 mmHg 32%
    19:00 +27°C° 0 mm 3 mps 671 mmHg 36%
    20:00 +25°C° 0 mm 3 mps 671 mmHg 40%
    21:00 +22°C° 0 mm 3 mps 671 mmHg 44%
    22:00 +21°C° 0 mm 3 mps 671 mmHg 45%
    23:00 +21°C° 0 mm 3 mps 671 mmHg 47%

    28 August, Monday

    Time Temperature Precipitation Wind Pressure Humidity
    00:00 +20°C° 0 mm 2 mps 671 mmHg 48%
    01:00 +20°C° 0 mm 2 mps 671 mmHg 51%
    02:00 +19°C° 0 mm 2 mps 671 mmHg 53%
    03:00 +19°C° 0 mm 2 mps 671 mmHg 56%
    04:00 +19°C° 0 mm 2 mps 671 mmHg 56%
    05:00 +19°C° 0 mm 2 mps 671 mmHg 57%
    06:00 +19°C° 0 mm 2 mps 671 mmHg 58%
    07:00 +21°C° 0 mm 2 mps 671 mmHg 50%
    08:00 +24°C° 0 mm 2 mps 672 mmHg 43%
    09:00 +27°C° 0 mm 1 mps 672 mmHg 36%
    10:00 +28°C° 0 mm 2 mps 672 mmHg 33%
    11:00 +30°C° 0 mm 2 mps 672 mmHg 30%
    12:00 +31°C° 0 mm 2 mps 671 mmHg 27%
    13:00 +32°C° 0 mm 2 mps 671 mmHg 26%
    14:00 +32°C° 0 mm 2 mps 671 mmHg 25%
    15:00 +34°C° 0 mm 3 mps 670 mmHg 24%
    16:00 +32°C° 0 mm 2 mps 670 mmHg 27%
    17:00 +31°C° 0 mm 2 mps 670 mmHg 30%
    18:00 +30°C° 0 mm 2 mps 670 mmHg 33%
    19:00 +28°C° 0.1 mm 2 mps 670 mmHg 38%
    20:00 +26°C° 0.1 mm 3 mps 670 mmHg 43%
    21:00 +24°C° 0.1 mm 3 mps 670 mmHg 48%
    22:00 +22°C° 0 mm 3 mps 670 mmHg 50%
    23:00 +22°C° 0 mm 3 mps 670 mmHg 51%

    29 August, Tuesday

    Time Temperature Precipitation Wind Pressure Humidity
    00:00 +21°C° 0 mm 2 mps 670 mmHg 52%
    01:00 +21°C° 0 mm 2 mps 670 mmHg 53%
    02:00 +20°C° 0 mm 2 mps 670 mmHg 54%
    03:00 +20°C° 0 mm 2 mps 670 mmHg 55%
    04:00 +20°C° 0 mm 2 mps 670 mmHg 56%
    05:00 +20°C° 0 mm 2 mps 670 mmHg 57%
    06:00 +19°C° 0 mm 2 mps 670 mmHg 57%
    07:00 +23°C° 0 mm 2 mps 670 mmHg 49%
    08:00 +26°C° 0 mm 2 mps 671 mmHg 41%
    09:00 +28°C° 0 mm 2 mps 671 mmHg 32%
    10:00 +30°C° 0 mm 2 mps 671 mmHg 29%
    11:00 +31°C° 0 mm 2 mps 671 mmHg 26%
    12:00 +34°C° 0 mm 2 mps 670 mmHg 23%
    13:00 +34°C° 0 mm 3 mps 670 mmHg 22%
    14:00 +35°C° 0 mm 3 mps 670 mmHg 21%
    15:00 +35°C° 0 mm 3 mps 669 mmHg 20%
    16:00 +34°C° 0.1 mm 2 mps 669 mmHg 23%
    17:00 +31°C° 0.1 mm 2 mps 669 mmHg 27%
    18:00 +30°C° 0.1 mm 2 mps 669 mmHg 30%
    19:00 +28°C° 0 mm 2 mps 669 mmHg 34%
    20:00 +27°C° 0 mm 2 mps 669 mmHg 39%
    21:00 +25°C° 0 mm 3 mps 669 mmHg 43%
    22:00 +24°C° 0 mm 2 mps 669 mmHg 46%
    23:00 +24°C° 0 mm 2 mps 669 mmHg 48%
    Show more